Coetivy Airport

Jump to: basic info | weather | runways | comments

Related pages: nearby airports | nearby navaids | notams | map

Basic information (top)

Codes: FSSC
Location: lon -7.134570, lat 56.278198, elev 10 ft / 3 m msl
Status: small_airport

Weather (top)

Current conditions for Diego Garcia Naval Support Facility 961nm (1,780km) E (rec'd 2014/09/15 23:55Z):

FJDG 152355Z 15008KT 9999 FEW020 FEW250 26/24 A2986 RMK SLP108 8/101 T02560238 10263 20253 55003

Airport forecast for Diego Garcia Naval Support Facility 961nm (1,780km) E (rec'd 2014/06/03 12:36Z):

TAF TAF FJDG 031200Z 0312/0418 15015KT 9999 FEW020 SCT080 BKN250 QNH2971INS TX31/0409Z TN26/0322Z

Runways (top)

13/31: 4,593 x 79 ft (1,400 x 24 m) — paved — not lighted — threshold 13 displaced 656 ft (200 m) — threshold 31 displaced 656 ft (200 m)

Latest comments (top)

No comments yet for Coetivy Airport

More... (top)

See also NOTAMs and nearby airports and navaids, or visit the Coetivy Airport page at the main OurAirports website..